Location: LDNL
(36.4545°S, 141.6685°E)
Time: 01:18:48
(UTC+10:00)

Explorer 7 - All Passes

Search period start: 11 August 2022 00:00
Search period end: 21 August 2022 00:00
Orbit: 482 x 668 km, 50.3° (Epoch: 10 August)

Date Brightness Start Highest point End Pass type
(mag) Time Alt. Az. Time Alt. Az. Time Alt. Az.
11 Aug - 00:19:06 10° SSW 00:22:33 22° SSE 00:25:51 10° ESE night (unlit)
11 Aug - 01:59:09 10° SW 02:03:27 87° NW 02:07:27 10° NE night (unlit)
11 Aug - 17:36:17 10° N 17:40:23 28° NE 17:44:28 10° ESE daylight
11 Aug - 19:15:56 10° WNW 19:20:41 53° SW 19:25:19 10° SE visible
11 Aug - 20:58:39 10° WSW 21:01:56 18° SSW 21:05:09 10° SSE visible
11 Aug - 22:41:20 10° SSW 22:43:50 14° S 22:46:15 10° SE night (unlit)
12 Aug - 00:21:36 10° SW 00:25:28 28° SSE 00:29:07 10° E night (unlit)
12 Aug - 02:01:55 10° WSW 02:06:04 52° NW 02:09:56 10° NNE night (unlit)
12 Aug - 17:38:18 10° NNW 17:42:54 44° NE 17:47:29 10° ESE daylight
12 Aug - 19:18:56 10° W 19:23:27 37° SSW 19:27:52 10° SE visible
12 Aug - 21:02:01 10° SW 21:04:56 16° S 21:07:47 10° SSE visible
12 Aug - 22:44:03 10° SSW 22:46:52 16° S 22:49:35 10° SE night (unlit)
13 Aug - 00:24:07 10° SW 00:28:18 39° SSE 00:32:13 10° E night (unlit)
13 Aug - 02:04:50 10° WSW 02:08:35 30° NW 02:12:08 10° NNE night (unlit)
13 Aug - 16:05:01 10° NE 16:05:42 10° NE 16:06:24 10° ENE daylight
13 Aug - 17:40:38 10° NW 17:45:29 69° NE 17:50:17 10° SE daylight
13 Aug - 19:22:05 10° W 19:26:17 28° SSW 19:30:24 10° SE visible
13 Aug - 21:05:18 10° SW 21:07:58 15° S 21:10:34 10° SSE visible
13 Aug - 22:46:39 10° SSW 22:49:52 18° SSE 22:52:58 10° ESE night (unlit)
14 Aug - 00:26:40 10° SW 00:31:04 59° SE 00:35:08 10° ENE night (unlit)
14 Aug - 02:08:06 10° W 02:11:02 18° NW 02:13:51 10° N night (unlit)
14 Aug - 16:04:54 10° NNE 16:08:06 18° NE 16:11:17 10° E daylight
14 Aug - 17:43:14 10° NW 17:48:07 79° SW 17:52:58 10° SE daylight
14 Aug - 19:25:21 10° WSW 19:29:11 22° SSW 19:32:55 10° SSE visible
14 Aug - 21:08:25 10° SSW 21:11:01 14° S 21:13:32 10° SSE visible
14 Aug - 22:49:10 10° SSW 22:52:49 23° SSE 22:56:17 10° ESE night (unlit)
15 Aug - 00:29:17 10° SW 00:33:44 87° NW 00:37:52 10° NE night (unlit)
15 Aug - 02:12:31 10° WNW 02:13:25 11° NW 02:14:18 10° NW night (unlit)
15 Aug - 16:06:25 10° N 16:10:32 28° NE 16:14:40 10° ESE daylight
15 Aug - 17:46:02 10° WNW 17:50:49 53° SW 17:55:34 10° SE daylight
15 Aug - 19:28:42 10° WSW 19:32:08 19° SSW 19:35:29 10° SSE visible
15 Aug - 21:11:20 10° SSW 21:14:02 15° S 21:16:41 10° SE visible
15 Aug - 22:51:41 10° SW 22:55:42 29° SSE 22:59:30 10° E night (unlit)
16 Aug - 00:32:01 10° WSW 00:36:20 53° NW 00:40:21 10° NNE night (unlit)
16 Aug - 16:08:26 10° NNW 16:13:02 44° NE 16:17:40 10° ESE daylight
16 Aug - 17:49:01 10° W 17:53:35 38° SSW 17:58:06 10° SE daylight
16 Aug - 19:32:02 10° SW 19:35:07 16° S 19:38:07 10° SSE visible
16 Aug - 21:14:03 10° SSW 21:17:04 16° S 21:19:58 10° SE visible
16 Aug - 22:54:11 10° SW 22:58:31 40° SSE 23:02:35 10° ENE night (unlit)
17 Aug - 00:34:55 10° WSW 00:38:51 32° NW 00:42:31 10° NNE night (unlit)
17 Aug - 14:35:14 10° NE 14:35:50 10° NE 14:36:26 10° ENE daylight
17 Aug - 16:10:45 10° NW 16:15:36 69° NE 16:20:28 10° SE daylight
17 Aug - 17:52:09 10° W 17:56:24 29° SSW 18:00:36 10° SE daylight
17 Aug - 19:35:17 10° SW 19:38:07 15° S 19:40:54 10° SSE visible
17 Aug - 21:16:40 10° SSW 21:20:03 19° SSE 21:23:19 10° ESE visible
17 Aug - 22:56:44 10° SW 23:01:17 60° SE 23:05:29 10° ENE night (unlit)
18 Aug - 00:38:08 10° W 00:41:16 19° NW 00:44:16 10° N night (unlit)
18 Aug - 14:35:03 10° NNE 14:38:12 17° NE 14:41:24 10° E daylight
18 Aug - 16:13:19 10° NW 16:18:12 79° SW 16:23:07 10° SE daylight
18 Aug - 17:55:23 10° WSW 17:59:17 23° SSW 18:03:08 10° SSE daylight
18 Aug - 19:38:23 10° SW 19:41:09 15° S 19:43:51 10° SE visible
18 Aug - 21:19:11 10° SSW 21:22:59 23° SSE 21:26:36 10° ESE visible
18 Aug - 22:59:20 10° SW 23:03:56 87° NW 23:08:12 10° NE night (unlit)
19 Aug - 00:42:17 10° WNW 00:43:38 11° NW 00:44:58 10° NW night (unlit)
19 Aug - 14:36:33 10° N 14:40:37 28° NE 14:44:46 10° ESE daylight
19 Aug - 16:16:07 10° WNW 16:20:54 54° SW 16:25:42 10° SE daylight
19 Aug - 17:58:42 10° WSW 18:02:13 19° SSW 18:05:41 10° SSE daylight
19 Aug - 19:41:18 10° SSW 19:44:10 16° S 19:46:59 10° SE visible
19 Aug - 21:21:41 10° SW 21:25:51 30° SSE 21:29:48 10° E visible
19 Aug - 23:02:02 10° WSW 23:06:31 54° NW 23:10:40 10° NNE night (unlit)
20 Aug - 14:38:32 10° NNW 14:43:05 43° NE 14:47:45 10° ESE daylight
20 Aug - 16:19:04 10° W 16:23:38 38° SSW 16:28:13 10° SE daylight
20 Aug - 18:02:01 10° SW 18:05:12 17° S 18:08:20 10° SSE daylight
20 Aug - 19:44:01 10° SSW 19:47:11 17° S 19:50:15 10° SE visible
20 Aug - 21:24:11 10° SW 21:28:39 41° SSE 21:32:52 10° ENE visible
20 Aug - 23:04:55 10° WSW 23:09:00 33° NW 23:12:50 10° NNE night (unlit)
